Location: Recife
(8.0585°S, 34.8848°W)
Time: 09:51:26
(UTC-03:00)

SR - Pass Details

Date: 20 April 2026
Orbit: 568 x 852 km, 66.7° (Epoch: 12 May)

Event Time Altitude Azimuth Distance (km) Brightness Sun altitude
Rises 00:05:19 0° 318° (NW) 3,396 - -78.0°
Reaches altitude 10° 00:08:07 10° 307° (NW) 2,452 - -77.3°
Maximum altitude 00:12:56 28° 249° (WSW) 1,489 - -76.2°
Drops below altitude 10° 00:17:35 10° 191° (S) 2,361 - -75.1°
Sets 00:20:15 0° 179° (S) 3,250 - -74.4°
